Date,TemperatureHighF,TemperatureAvgF,TemperatureLowF,DewpointHighF,DewpointAvgF,DewpointLowF,HumidityHigh,HumidityAvg,HumidityLow,PressureMaxIn,PressureMinIn,WindSpeedMaxMPH,WindSpeedAvgMPH,GustSpeedMaxMPH,PrecipitationSumIn
2013-6-1,79.3,70.1,63.1,69.4,64.9,59.1,98,84,70,30.00,29.80,11,4,11,0.04
2013-6-2,81.9,71.9,62.6,70.3,62.5,38.8,90,73,36,29.98,29.89,10,3,10,0.21
2013-6-3,80.4,70.1,60.1,69.6,59.4,26.2,79,69,24,30.06,29.95,8,3,8,0.00
2013-6-4,86.0,73.4,53.1,73.7,61.9,27.1,81,68,27,30.12,30.00,7,2,7,0.00
2013-6-5,91.2,77.7,61.3,78.6,66.0,24.5,81,68,24,30.03,29.86,9,2,9,0.00
2013-6-6,78.1,72.0,67.5,68.6,63.8,46.8,97,76,47,29.86,29.80,8,2,8,0.37
2013-6-7,86.9,73.0,62.1,99.9,63.8,47.9,97,72,59,29.89,29.77,6,2,6,0.13
2013-6-8,86.4,73.9,61.0,74.5,63.0,40.5,93,69,46,30.03,29.89,10,3,10,0.17
2013-6-9,83.8,73.0,61.0,72.1,64.7,35.8,98,76,39,30.06,29.86,8,2,8,0.08
2013-6-10,77.0,69.0,64.2,67.8,63.9,25.6,97,85,16,30.03,29.80,14,4,14,1.00
2013-6-11,88.7,78.8,59.2,76.6,68.4,39.4,89,71,33,30.03,29.92,9,4,9,0.00
2013-6-12,92.7,84.6,71.6,79.8,73.3,43.9,95,70,35,30.00,29.83,18,6,18,0.00
2013-6-13,82.8,78.0,68.4,71.4,65.8,33.7,75,68,20,29.95,29.74,17,6,17,0.00
2013-6-14,88.7,75.1,56.3,76.4,62.7,15.4,79,67,19,30.06,29.95,10,2,10,0.00
2013-6-15,90.3,78.1,60.4,77.9,67.1,27.8,90,70,28,30.12,29.98,9,3,9,0.00
2013-6-16,86.2,75.6,67.6,74.2,66.1,31.7,89,74,26,30.09,29.98,11,3,11,0.00
2013-6-17,93.0,75.5,66.0,80.4,67.9,46.6,97,79,41,30.00,29.89,13,3,13,0.46
2013-6-18,89.1,77.2,64.4,77.1,67.5,57.3,95,73,68,29.98,29.86,13,3,13,0.16
2013-6-19,89.8,78.3,61.3,77.4,66.9,38.1,85,69,34,30.09,29.98,8,2,8,0.00
2013-6-20,94.3,81.0,65.3,80.8,68.9,27.5,80,68,24,30.18,30.09,6,1,6,0.00
2013-6-21,94.5,80.9,64.6,80.7,68.3,40.0,97,66,40,30.21,30.09,9,2,9,0.00
2013-6-22,93.7,81.9,65.7,80.4,70.6,39.5,91,69,37,30.18,30.06,10,3,10,0.00
2013-6-23,91.9,81.1,68.9,79.4,71.3,61.4,97,73,67,30.15,30.03,12,4,12,0.00
2013-6-24,82.6,73.7,68.0,72.0,66.8,40.9,97,80,31,30.18,30.06,8,2,8,0.08
2013-6-25,92.8,81.6,66.7,80.1,72.2,60.4,96,74,67,30.09,29.92,10,4,10,0.00
2013-6-26,88.9,78.3,66.4,76.6,69.6,30.6,97,76,22,30.00,29.74,34,6,34,1.26
2013-6-27,91.6,79.4,67.8,78.7,71.4,29.1,97,78,14,29.86,29.80,13,3,13,0.00
2013-6-28,91.8,80.6,71.1,78.2,68.9,39.3,83,69,30,29.80,29.65,13,3,13,0.00
2013-6-29,85.3,74.5,62.4,73.5,64.5,28.4,93,72,25,29.71,29.62,13,4,13,0.04
2013-6-30,87.1,72.1,61.9,75.2,63.3,47.2,97,75,54,29.83,29.68,8,3,8,0.00